• In Latvia
  • List of Countries
  • For 7 days
  • Water Temperature
  • Satellite Maps
  • Weather Map
  • Weather Widgets
  • user-avatar
    Login

    Hourly Weather Oran

    Today, 25 May, Thursday

    Time Temperature Precipitation Wind Pressure Humidity
    00:00 +22°C° 0 mm 3 mps 750 mmHg 78%
    01:00 +21°C° 0.1 mm 3 mps 750 mmHg 79%
    02:00 +21°C° 0.1 mm 3 mps 750 mmHg 80%
    03:00 +21°C° 0.1 mm 4 mps 750 mmHg 81%
    04:00 +21°C° 0 mm 3 mps 750 mmHg 77%
    05:00 +22°C° 0 mm 3 mps 750 mmHg 73%
    06:00 +25°C° 0 mm 2 mps 750 mmHg 63%
    07:00 +27°C° 0 mm 3 mps 750 mmHg 56%
    08:00 +29°C° 0 mm 3 mps 750 mmHg 49%
    09:00 +31°C° 0 mm 3 mps 750 mmHg 42%
    10:00 +34°C° 0 mm 4 mps 749 mmHg 38%
    11:00 +36°C° 0 mm 5 mps 749 mmHg 35%
    12:00 +37°C° 0 mm 5 mps 749 mmHg 31%
    13:00 +38°C° 0 mm 6 mps 748 mmHg 31%
    14:00 +38°C° 0 mm 6 mps 748 mmHg 31%
    15:00 +38°C° 0 mm 6 mps 747 mmHg 31%
    16:00 +35°C° 0.1 mm 6 mps 747 mmHg 34%
    17:00 +34°C° 0.1 mm 5 mps 747 mmHg 36%
    18:00 +33°C° 0.1 mm 4 mps 747 mmHg 39%
    19:00 +30°C° 0.2 mm 4 mps 748 mmHg 47%
    20:00 +28°C° 0.2 mm 3 mps 748 mmHg 55%
    21:00 +25°C° 0.2 mm 2 mps 748 mmHg 63%
    22:00 +25°C° 0.1 mm 3 mps 748 mmHg 66%
    23:00 +24°C° 0.1 mm 3 mps 748 mmHg 69%

    Tomorrow, 26 May, Friday

    Time Temperature Precipitation Wind Pressure Humidity
    00:00 +22°C° 0.1 mm 3 mps 748 mmHg 72%
    01:00 +23°C° 0.1 mm 2 mps 748 mmHg 75%
    02:00 +21°C° 0.1 mm 2 mps 748 mmHg 77%
    03:00 +22°C° 0.1 mm 1 mps 747 mmHg 80%
    04:00 +22°C° 0.1 mm 1 mps 748 mmHg 77%
    05:00 +23°C° 0.1 mm 1 mps 748 mmHg 75%
    06:00 +23°C° 0.1 mm 2 mps 748 mmHg 73%
    07:00 +26°C° 0.1 mm 2 mps 748 mmHg 66%
    08:00 +28°C° 0.1 mm 3 mps 748 mmHg 58%
    09:00 +30°C° 0.1 mm 3 mps 748 mmHg 50%
    10:00 +32°C° 0 mm 4 mps 748 mmHg 48%
    11:00 +32°C° 0 mm 4 mps 748 mmHg 46%
    12:00 +33°C° 0 mm 5 mps 748 mmHg 44%
    13:00 +33°C° 0 mm 4 mps 748 mmHg 44%
    14:00 +32°C° 0 mm 4 mps 747 mmHg 45%
    15:00 +32°C° 0 mm 4 mps 747 mmHg 46%
    16:00 +30°C° 0.1 mm 3 mps 747 mmHg 49%
    17:00 +29°C° 0.1 mm 3 mps 747 mmHg 53%
    18:00 +27°C° 0.1 mm 3 mps 747 mmHg 57%
    19:00 +26°C° 0 mm 3 mps 748 mmHg 64%
    20:00 +24°C° 0 mm 2 mps 748 mmHg 71%
    21:00 +23°C° 0 mm 2 mps 749 mmHg 78%
    22:00 +21°C° 0 mm 2 mps 749 mmHg 80%
    23:00 +21°C° 0 mm 2 mps 749 mmHg 82%

    Day after tomorrow, 27 May, Saturday

    Time Temperature Precipitation Wind Pressure Humidity
    00:00 +21°C° 0 mm 2 mps 749 mmHg 84%
    01:00 +21°C° 0 mm 1 mps 749 mmHg 86%
    02:00 +21°C° 0 mm 1 mps 749 mmHg 87%
    03:00 +21°C° 0 mm 1 mps 749 mmHg 89%
    04:00 +21°C° 0 mm 1 mps 749 mmHg 86%
    05:00 +21°C° 0 mm 1 mps 749 mmHg 84%
    06:00 +22°C° 0 mm 1 mps 749 mmHg 81%
    07:00 +24°C° 0 mm 1 mps 749 mmHg 72%
    08:00 +26°C° 0 mm 1 mps 750 mmHg 63%
    09:00 +28°C° 0 mm 2 mps 750 mmHg 53%
    10:00 +30°C° 0 mm 2 mps 750 mmHg 49%
    11:00 +31°C° 0 mm 3 mps 750 mmHg 45%
    12:00 +33°C° 0 mm 4 mps 749 mmHg 41%
    13:00 +33°C° 0 mm 4 mps 749 mmHg 42%
    14:00 +33°C° 0 mm 4 mps 749 mmHg 42%
    15:00 +33°C° 0 mm 4 mps 748 mmHg 43%
    16:00 +32°C° 0 mm 4 mps 749 mmHg 46%
    17:00 +30°C° 0 mm 4 mps 749 mmHg 49%
    18:00 +29°C° 0 mm 3 mps 749 mmHg 52%
    19:00 +27°C° 0 mm 3 mps 749 mmHg 59%
    20:00 +25°C° 0 mm 3 mps 750 mmHg 67%
    21:00 +23°C° 0 mm 2 mps 750 mmHg 74%
    22:00 +23°C° 0 mm 2 mps 750 mmHg 77%
    23:00 +21°C° 0 mm 2 mps 750 mmHg 80%

    28 May, Sunday

    Time Temperature Precipitation Wind Pressure Humidity
    00:00 +21°C° 0 mm 2 mps 750 mmHg 83%
    01:00 +20°C° 0 mm 2 mps 750 mmHg 85%
    02:00 +20°C° 0 mm 2 mps 750 mmHg 88%
    03:00 +19°C° 0 mm 2 mps 750 mmHg 90%
    04:00 +20°C° 0 mm 2 mps 750 mmHg 88%
    05:00 +20°C° 0 mm 2 mps 750 mmHg 86%
    06:00 +21°C° 0 mm 2 mps 750 mmHg 84%
    07:00 +24°C° 0 mm 2 mps 750 mmHg 74%
    08:00 +26°C° 0 mm 2 mps 750 mmHg 65%
    09:00 +28°C° 0 mm 2 mps 750 mmHg 56%
    10:00 +29°C° 0 mm 3 mps 750 mmHg 52%
    11:00 +30°C° 0 mm 3 mps 750 mmHg 49%
    12:00 +33°C° 0 mm 4 mps 750 mmHg 46%
    13:00 +33°C° 0 mm 4 mps 749 mmHg 46%
    14:00 +33°C° 0 mm 4 mps 749 mmHg 46%
    15:00 +33°C° 0 mm 4 mps 748 mmHg 46%
    16:00 +30°C° 0 mm 3 mps 748 mmHg 49%
    17:00 +29°C° 0 mm 3 mps 748 mmHg 52%
    18:00 +28°C° 0 mm 3 mps 748 mmHg 56%
    19:00 +26°C° 0.1 mm 3 mps 749 mmHg 63%
    20:00 +25°C° 0.1 mm 2 mps 749 mmHg 71%
    21:00 +23°C° 0.1 mm 2 mps 750 mmHg 79%
    22:00 +22°C° 0.1 mm 3 mps 749 mmHg 81%
    23:00 +21°C° 0.1 mm 3 mps 749 mmHg 83%

    29 May, Monday

    Time Temperature Precipitation Wind Pressure Humidity
    00:00 +21°C° 0.1 mm 4 mps 749 mmHg 85%
    01:00 +21°C° 0.1 mm 4 mps 749 mmHg 86%
    02:00 +21°C° 0.1 mm 5 mps 749 mmHg 87%
    03:00 +21°C° 0.1 mm 5 mps 749 mmHg 87%
    04:00 +21°C° 0 mm 5 mps 750 mmHg 86%
    05:00 +21°C° 0 mm 4 mps 750 mmHg 85%
    06:00 +21°C° 0 mm 4 mps 750 mmHg 84%
    07:00 +22°C° 0 mm 4 mps 751 mmHg 79%
    08:00 +23°C° 0 mm 4 mps 751 mmHg 73%
    09:00 +24°C° 0 mm 3 mps 751 mmHg 68%
    10:00 +25°C° 0 mm 4 mps 751 mmHg 63%
    11:00 +27°C° 0 mm 4 mps 750 mmHg 59%
    12:00 +28°C° 0 mm 5 mps 750 mmHg 55%
    13:00 +28°C° 0 mm 5 mps 750 mmHg 53%
    14:00 +28°C° 0 mm 5 mps 750 mmHg 52%
    15:00 +28°C° 0 mm 5 mps 749 mmHg 50%
    16:00 +27°C° 0.2 mm 4 mps 749 mmHg 51%
    17:00 +26°C° 0.2 mm 4 mps 749 mmHg 53%
    18:00 +25°C° 0.2 mm 3 mps 750 mmHg 54%
    19:00 +24°C° 0.4 mm 2 mps 750 mmHg 60%
    20:00 +23°C° 0.4 mm 2 mps 750 mmHg 66%
    21:00 +22°C° 0.4 mm 1 mps 751 mmHg 73%
    22:00 +20°C° 0 mm 2 mps 751 mmHg 74%
    23:00 +20°C° 0 mm 2 mps 750 mmHg 74%

    30 May, Tuesday

    Time Temperature Precipitation Wind Pressure Humidity
    00:00 +20°C° 0 mm 2 mps 750 mmHg 75%
    01:00 +20°C° 0.1 mm 3 mps 750 mmHg 75%
    02:00 +20°C° 0.1 mm 3 mps 750 mmHg 76%
    03:00 +20°C° 0.1 mm 3 mps 749 mmHg 76%
    04:00 +20°C° 0 mm 3 mps 750 mmHg 72%
    05:00 +21°C° 0 mm 2 mps 750 mmHg 69%
    06:00 +21°C° 0 mm 2 mps 750 mmHg 66%
    07:00 +24°C° 0 mm 2 mps 750 mmHg 59%
    08:00 +25°C° 0 mm 3 mps 750 mmHg 53%
    09:00 +27°C° 0 mm 3 mps 750 mmHg 46%
    10:00 +28°C° 0 mm 4 mps 750 mmHg 44%
    11:00 +29°C° 0 mm 4 mps 750 mmHg 42%
    12:00 +30°C° 0 mm 4 mps 749 mmHg 39%
    13:00 +30°C° 0 mm 4 mps 749 mmHg 39%
    14:00 +30°C° 0 mm 5 mps 749 mmHg 39%
    15:00 +30°C° 0 mm 5 mps 748 mmHg 38%
    16:00 +29°C° 0 mm 4 mps 749 mmHg 42%
    17:00 +27°C° 0 mm 3 mps 749 mmHg 46%
    18:00 +26°C° 0 mm 2 mps 749 mmHg 50%
    19:00 +25°C° 0 mm 2 mps 749 mmHg 57%
    20:00 +23°C° 0 mm 1 mps 750 mmHg 64%
    21:00 +22°C° 0 mm 1 mps 750 mmHg 70%
    22:00 +21°C° 0 mm 1 mps 750 mmHg 72%
    23:00 +21°C° 0 mm 1 mps 750 mmHg 74%
    Show more